Miscellaneous Local Product
Issued by NWS North Platte, NE

Home | Current Version | Previous Version | Text Only | Print | Product List | Glossary On
Versions: 1 2 3 4 5 6 7 8 9 10 11 12 13 14 15 16 17 18 19 20 21 22 23 24 25 26 27 28 29 30 31 32 33 34 35 36 37 38 39 40 41 42 43 44 45 46 47 48 49 50
000
AXUS43 KLBF 162310
MISLBF


WESTERN AND NORTH CENTRAL NEBRASKA HOURLY WEATHER ROUNDUP
NATIONAL WEATHER SERVICE NORTH PLATTE NE
500 PM CST TUE DEC 16 2014

***STATIONS NOT REPORTING VARIABLES SUCH AS SKY/WEATHER OR
PRESSURE ARE PROVIDED BY THE NEBRASKA DEPARTMENT OF
ROADS...RAWS...AND APRS NETWORKS...AND ARE NOT UNDER
NATIONAL WEATHER SERVICE QUALITY CONTROL***

...OBSERVATIONS IN AND NEAR THE EASTERN PANHANDLE OF NEBRASKA...

CITY           SKY/WX    TMP DP  RH WIND       PRES   REMARKS
PINE RIDGE     CLOUDY    21  17  84 E6        30.17R WCI  13
CHADRON        MOCLDY    21  16  81 SE6       30.16S WCI  13
ALLIANCE       CLOUDY    21  18  88 SE10      30.12F WCI  10
SIDNEY         MOCLDY    19  15  84 SE12      30.11R WCI   7
WHITECLAY        N/A     20  16  83 SE5         N/A  WCI  14
CRESCENT LAKE    N/A     20  18  91 SE6         N/A  WCI  12
LISCO            N/A     22  19  87 E10         N/A  WCI  11
BIG SPRINGS      N/A     22  21  94 E5          N/A  WCI  16
$$

...OBSERVATIONS IN NORTH CENTRAL NEBRASKA...

CITY           SKY/WX    TMP DP  RH WIND       PRES   REMARKS
VALENTINE      CLOUDY    21  16  81 NW3       30.25F
THEDFORD       CLOUDY    21  19  91 CALM      30.24S
AINSWORTH      CLOUDY    20  17  86 CALM      30.26R
O`NEILL        CLOUDY    20  18  91 N3        30.30S
ORD            CLOUDY    21  16  81 NW6       30.29S WCI  13
BROKEN BOW     CLOUDY    22  19  89 N7        30.26S WCI  13
BROWNLEE         N/A     17  14  88 CALM        N/A
SPRINGVIEW       N/A     20  15  81 CALM        N/A
BREWSTER         N/A     24  22  89 CALM        N/A
ROSE             N/A     25  25 100 MISG        N/A
SARGENT          N/A     22  19  89 CALM        N/A
COMSTOCK         N/A     28  23  80 CALM        N/A
CHAMBERS         N/A     20  14  78 CALM        N/A
EWING            N/A     19  17  93 CALM        N/A
$$

...OBSERVATIONS IN SOUTHWEST NEBRASKA AND FAR NORTHEAST COLORADO...

CITY           SKY/WX    TMP DP  RH WIND       PRES   REMARKS
WRAY           FAIR      26  24  92 E6        30.15S WCI  20
IMPERIAL       CLOUDY    23  19  85 E6        30.19S WCI  16
OGALLALA       CLOUDY    22  21  96 SE7       30.20R WCI  13
NORTH PLATTE   PTCLDY    21  16  81 E6        30.24S WCI  13
MCCOOK         PTCLDY    27  20  75 E12       30.24S WCI  17
LEXINGTON      CLOUDY    23  19  83 CALM      30.27S
PAXTON           N/A     23  20  89 CALM        N/A
BRADY            N/A     21  17  83 CALM        N/A
GOTHENBURG       N/A     23  19  83 N3          N/A
CALLAWAY         N/A     19  17  91 CALM        N/A
$$

...NORTH PLATTE AREA...

CITY           SKY/WX    TMP DP  RH WIND       PRES   REMARKS
AIRPORT        PTCLDY    21  16  81 E6        30.24S WCI  13
DOWNTOWN         N/A     22  18  84 CALM        N/A
$$

...SOME WEATHER OBSERVATIONS FROM AROUND THE REGION...

CITY           SKY/WX    TMP DP  RH WIND       PRES   REMARKS
DENVER         MOCLDY    33  21  61 VRB3      30.04R
LARAMIE        CLOUDY    34  27  75 SE8       29.99S WCI  27
CHEYENNE       CLOUDY    33  19  56 CALM      30.00F
SCOTTSBLUFF    MOCLDY    19  16  88 SE9       30.11S WCI   8
RAPID CITY     CLOUDY    22  18  85 SE9       30.17S WCI  12
PIERRE         CLOUDY    22  15  75 N7        30.30S WCI  13
WINNER         CLOUDY    22  15  75 N6        30.29F WCI  14
SIOUX FALLS    PTCLDY    14   9  80 NW7       30.30R WCI   4
OMAHA          PTCLDY    25  16  68 NW15      30.34R WCI  13
GRAND ISLAND   CLOUDY    23  18  81 N9        30.32R WCI  13
KANSAS CITY    CLOUDY    28  21  75 NW13      30.31R WCI  17
WICHITA        PTCLDY    38  23  55 N7        30.31R WCI  33
HAYS           CLEAR     30  16  55 NE7       30.28S WCI  23
LIBERAL        MOCLDY    41  16  36 SE6       30.21S
GOODLAND       CLOUDY    33  20  58 SE9       30.16S WCI  25
$$



USA.gov is the U.S. government's official web portal to all federal, state and local government web resources and services.